Starlink 6369

operational
NORAD ID: 57374 Int'l Des: 2023-099 Owner: SPXS Country: US Constellation: starlink
LEOCIRCULAR

Über Starlink 6369

Beschreibung wird geladen...

Live-Position

3D-Globus wird geladen...

Nächste Überflüge

Höhenverlauf

Altitude vs Time

uPlot chart will show altitude changes over time

Zweizeiliger Elementsatz

1 57374U 23099AY 25305.97039883 -.00000632 00000-0 -31730-4 0 9992
2 57374 43.0053 196.9730 0001710 268.5056 91.5591 15.02524945127208
Epoch: 1. Nov. 2025 • Age: 30 hours

Aktueller Status

Höhe 559.8 km
Geschwindigkeit 7.59 km/s
Subsatellitenpunkt 26.38°N, 92.51°E
Startdatum 16. Juli 2023
Alter 2.3 years
Typ internet

Technische Details

Klassifizierung Payload
Masse 305.00 kg
Trockenmasse 290.00 kg
Gesamtmasse 305.00 kg
Länge 0.20 m
Durchmesser 2.80 m
Spannweite 9.00 m
Form Box + pan
Hersteller SPXS
Bus-Typ Starlink
Phasenstatus In Orbit
Besitzer/Staat SPXS/US

Große Konstellationen

Loading constellations...